This is the latest recevied weather packets stored in our database for station/object KC2TER. If no packets are shown the sender has not sent any weather packets the latest 10 day(s).
| Time | Temp. | Humidity | Pressure | Rain* | Wind** | Luminosity | Snow |
|---|---|---|---|---|---|---|---|
| 1787768086 | 26.67° C | 64% | 1018.8 hPa | 0 mm | - | 790 W/m² | - |
| 1787767787 | 26.67° C | 67% | 1018.8 hPa | 0 mm | - | 804 W/m² | - |
| 1787767482 | 26.67° C | 66% | 1018.8 hPa | 0 mm | - | 845 W/m² | - |
| 1787767180 | 26.67° C | 65% | 1018.8 hPa | 0 mm | - | 836 W/m² | - |
| 1787766879 | 26.67° C | 65% | 1018.6 hPa | 0 mm | - | 831 W/m² | - |
| 1787766574 | 26.67° C | 65% | 1018.7 hPa | 0 mm | - | 857 W/m² | - |
| 1787766273 | 26.11° C | 66% | 1018.8 hPa | 0 mm | - | 860 W/m² | - |
| 1787765968 | 27.22° C | 64% | 1018.9 hPa | 0 mm | - | 257 W/m² | - |
| 1787765664 | 27.22° C | 67% | 1018.8 hPa | 0 mm | - | 898 W/m² | - |
| 1787765360 | 27.22° C | 65% | 1018.8 hPa | 0 mm | - | 892 W/m² | - |
| 1787765059 | 26.67° C | 65% | 1018.7 hPa | 0 mm | - | 908 W/m² | - |
| 1787764753 | 26.11° C | 66% | 1018.7 hPa | 0 mm | - | 908 W/m² | - |
| 1787764449 | 25.56° C | 66% | 1019 hPa | 0 mm | - | 891 W/m² | - |
| 1787764145 | 26.11° C | 65% | 1019 hPa | 0 mm | - | 881 W/m² | - |
| 1787763840 | 26.67° C | 65% | 1019.1 hPa | 0 mm | - | 836 W/m² | - |
| 1787763535 | 26.11° C | 66% | 1019.1 hPa | 0 mm | - | 776 W/m² | - |
| 1787763230 | 26.11° C | 66% | 1018.9 hPa | 0 mm | - | 626 W/m² | - |
| 1787762926 | 26.11° C | 65% | 1019.3 hPa | 0 mm | - | 786 W/m² | - |
| 1787762619 | 26.11° C | 65% | 1019.2 hPa | 0 mm | - | 768 W/m² | - |
| 1787762317 | 26.67° C | 65% | 1019 hPa | 0 mm | - | 431 W/m² | - |
| 1787762012 | 26.11° C | 65% | 1019.2 hPa | 0 mm | - | 753 W/m² | - |
| 1787761712 | 26.11° C | 66% | 1019.1 hPa | 0 mm | - | 744 W/m² | - |
| 1787761407 | 26.11° C | 66% | 1019.1 hPa | 0 mm | - | 720 W/m² | - |
| 1787761106 | 25.56° C | 67% | 1019.3 hPa | 0 mm | - | 711 W/m² | - |
| 1787760806 | 26.11° C | 66% | 1019.1 hPa | 0 mm | - | 714 W/m² | - |
* Rain latest hour (hover to see other rain measurements)
** Current wind speed in m/s (hover to see current wind gust speed)